FW3157 Weather Reports


time (UTC)temp
C
wind
direction
speed
KPH
gust
KPH
rain 1hr
cm
rain 24hr
cm
rain mn
cm
humidity
%
barometer
mb
20260509221321 17 138 0.0 1.6 0.00 0.03 0.00 90 1015.7
20260509220821 17 138 0.0 1.6 0.00 0.03 0.00 91 1015.7
20260509220544 17 138 1.6 1.6 0.00 0.03 0.00 91 1015.8
20260509215820 17 137 0.0 1.6 0.00 0.03 0.00 91 1015.7
20260509215319 17 137 0.0 1.6 0.00 0.03 0.00 91 1015.8
20260509214824 17 137 0.0 1.6 0.00 0.03 0.00 91 1015.9
20260509214540 17 137 0.0 1.6 0.00 0.03 0.00 90 1015.9
20260509213819 17 138 0.0 1.6 0.00 0.03 0.00 91 1015.9
20260509213317 17 137 0.0 1.6 0.00 0.03 0.00 91 1016.0
20260509212816 17 138 0.0 1.6 0.00 0.03 0.00 91 1015.9
20260509212313 17 137 0.0 1.6 0.00 0.03 0.00 91 1016.0
20260509211814 17 137 0.0 1.6 0.00 0.03 0.00 91 1015.9
20260509211536 17 137 0.0 1.6 0.00 0.03 0.00 91 1015.9
20260509210813 17 138 0.0 1.6 0.00 0.03 0.00 91 1015.9
20260509210313 17 137 0.0 3.2 0.00 0.03 0.00 91 1015.9
20260509205813 17 138 0.0 3.2 0.00 0.03 0.03 91 1015.9
20260509205307 17 138 0.0 3.2 0.00 0.03 0.03 91 1015.8
20260509204802 17 149 0.0 3.2 0.00 0.03 0.03 91 1015.7
20260509204254 17 207 0.0 3.2 0.00 0.03 0.03 91 1015.6
20260509203749 17 207 1.6 4.8 0.00 0.03 0.03 91 1015.7
20260509203243 17 259 1.6 4.8 0.00 0.03 0.03 91 1015.7
20260509202737 18 208 0.0 3.2 0.00 0.03 0.03 91 1015.6
20260509202231 18 208 1.6 4.8 0.00 0.03 0.03 91 1015.6
20260509201725 18 208 1.6 4.8 0.00 0.03 0.03 90 1015.6
20260509201218 18 205 1.6 6.4 0.00 0.03 0.03 90 1015.6
20260509200712 18 207 1.6 6.4 0.00 0.03 0.03 90 1015.6
20260509200207 17 224 0.0 1.6 0.00 0.03 0.03 90 1015.5
20260509195700 17 224 0.0 0.0 0.00 0.03 0.03 89 1015.4
20260509195155 18 224 0.0 0.0 0.00 0.03 0.03 89 1015.4
20260509194649 18 224 0.0 0.0 0.00 0.03 0.03 88 1015.3
20260509194413 18 224 0.0 0.0 0.00 0.03 0.03 88 1015.4
20260509193637 18 224 0.0 1.6 0.00 0.03 0.03 88 1015.4
20260509193131 18 224 0.0 1.6 0.00 0.03 0.03 88 1015.5
20260509192625 18 224 0.0 1.6 0.00 0.03 0.03 88 1015.4
20260509192119 18 224 0.0 1.6 0.00 0.03 0.03 88 1015.4
20260509191613 18 224 0.0 1.6 0.00 0.03 0.03 88 1015.3
20260509191107 18 224 0.0 1.6 0.00 0.03 0.03 88 1015.4
20260509190601 18 224 0.0 1.6 0.00 0.03 0.03 89 1015.3
20260509190322 18 224 0.0 1.6 0.00 0.03 0.03 88 1015.3
20260509185552 18 224 0.0 1.6 0.00 0.03 0.03 88 1015.3
20260509185043 18 224 0.0 1.6 0.00 0.03 0.03 87 1015.3
20260509184536 18 224 0.0 4.8 0.00 0.03 0.03 87 1015.2
20260509184031 18 224 0.0 4.8 0.00 0.03 0.03 87 1015.2
20260509183525 18 213 1.6 4.8 0.00 0.03 0.03 86 1015.2
20260509183506 18 213 1.6 4.8 0.00 0.03 0.03 85 1015.1
20260509182512 18 219 0.0 4.8 0.00 0.03 0.03 83 1015.1
20260509182007 18 208 0.0 3.2 0.00 0.03 0.03 81 1015.0
20260509181503 19 208 0.0 4.8 0.00 0.03 0.03 81 1014.9
20260509181441 19 208 0.0 4.8 0.00 0.03 0.03 80 1014.7
20260509180449 19 246 0.0 3.2 0.00 0.03 0.03 80 1014.7
20260509175942 19 245 0.0 1.6 0.00 0.03 0.03 79 1014.7
20260509175437 19 246 0.0 3.2 0.00 0.03 0.03 79 1014.5
20260509174930 19 245 1.6 4.8 0.00 0.03 0.03 79 1014.4
20260509174425 19 245 1.6 4.8 0.00 0.03 0.03 80 1014.3
20260509174144 19 98 0.0 1.6 0.00 0.03 0.03 80 1014.3
20260509173413 20 98 0.0 1.6 0.00 0.03 0.03 80 1014.2
20260509172906 20 98 0.0 1.6 0.00 0.03 0.03 80 1014.1
20260509172401 20 98 0.0 1.6 0.00 0.03 0.03 80 1014.1
20260509171855 20 98 0.0 1.6 0.00 0.03 0.03 80 1014.2
20260509171607 20 98 0.0 3.2 0.00 0.03 0.03 80 1014.1
20260509170843 20 98 0.0 3.2 0.00 0.03 0.03 80 1014.1
20260509170555 20 98 0.0 3.2 0.00 0.03 0.03 80 1014.1
20260509165831 20 98 1.6 4.8 0.00 0.03 0.03 79 1014.2
20260509165331 20 145 0.0 4.8 0.00 0.03 0.03 80 1014.2
20260509165053 20 147 1.6 4.8 0.00 0.03 0.03 80 1014.2
20260509164331 20 148 1.6 6.4 0.00 0.03 0.03 81 1014.1
20260509164049 20 184 1.6 6.4 0.00 0.03 0.03 81 1014.1
20260509163327 20 254 1.6 6.4 0.00 0.03 0.03 82 1014.1
20260509162827 20 162 1.6 6.4 0.00 0.03 0.03 82 1014.1
20260509162551 20 207 1.6 4.8 0.00 0.03 0.03 82 1014.1
20260509161825 20 234 1.6 4.8 0.00 0.03 0.03 83 1014.0
20260509161325 20 214 1.6 4.8 0.00 0.03 0.03 83 1014.1
20260509160824 20 144 1.6 4.8 0.00 0.03 0.03 83 1014.0
20260509160324 20 203 1.6 4.8 0.00 0.03 0.03 84 1014.1
20260509160044 20 211 1.6 6.4 0.00 0.03 0.03 84 1014.2
20260509155808 20 208 1.6 8.0 0.00 0.03 0.03 84 1014.1
20260509154823 20 191 1.6 8.0 0.00 0.03 0.03 84 1014.1
20260509154321 20 205 3.2 11.3 0.00 0.03 0.03 84 1014.1
20260509153821 20 222 3.2 11.3 0.00 0.03 0.03 84 1014.1
20260509153319 20 210 3.2 11.3 0.00 0.03 0.03 84 1014.0
20260509152819 20 214 4.8 14.5 0.00 0.03 0.03 84 1014.0
20260509152312 20 227 4.8 14.5 0.00 0.03 0.03 84 1014.0
20260509151807 20 238 4.8 12.9 0.00 0.03 0.03 84 1014.0
20260509151523 20 268 4.8 12.9 0.00 0.03 0.03 84 1013.9
20260509150805 20 207 3.2 12.9 0.00 0.03 0.03 83 1013.9
20260509150305 20 187 4.8 11.3 0.00 0.03 0.03 83 1013.9
20260509145805 20 219 4.8 11.3 0.00 0.03 0.03 83 1013.8
20260509145306 20 258 3.2 11.3 0.00 0.03 0.03 84 1013.8
20260509144804 20 213 4.8 16.1 0.00 0.03 0.03 83 1013.8
20260509144305 20 247 6.4 16.1 0.00 0.03 0.03 84 1013.8
20260509143804 20 234 6.4 14.5 0.00 0.03 0.03 83 1013.8
20260509143526 20 219 6.4 17.7 0.00 0.03 0.03 83 1013.8
20260509142805 20 236 8.0 17.7 0.00 0.03 0.03 83 1013.8
20260509142307 20 207 4.8 14.5 0.00 0.03 0.03 82 1013.8
20260509141801 20 254 4.8 12.9 0.00 0.03 0.03 82 1013.8
20260509141301 20 214 6.4 16.1 0.00 0.03 0.03 82 1013.8
20260509140801 20 215 6.4 16.1 0.00 0.03 0.03 82 1013.8
20260509140301 20 191 6.4 16.1 0.00 0.03 0.03 81 1013.9
20260509135801 20 237 4.8 12.9 0.00 0.03 0.03 80 1013.8
20260509135301 20 245 3.2 14.5 0.00 0.03 0.03 79 1013.8
20260509134800 20 287 4.8 14.5 0.00 0.03 0.03 79 1013.8
20260509134301 20 214 4.8 14.5 0.00 0.03 0.03 77 1013.9
20260509133800 20 250 4.8 16.1 0.00 0.03 0.03 77 1013.9
20260509133300 20 236 6.4 16.1 0.00 0.03 0.03 76 1013.9
20260509132801 20 230 4.8 12.9 0.00 0.03 0.03 76 1013.9
20260509132520 20 235 6.4 16.1 0.00 0.03 0.03 75 1013.9
20260509131801 20 270 6.4 16.1 0.00 0.03 0.03 74 1013.9
20260509131516 20 237 4.8 14.5 0.00 0.03 0.03 73 1013.9
20260509130801 20 208 6.4 16.1 0.00 0.03 0.03 74 1013.8
20260509130300 20 238 6.4 16.1 0.00 0.03 0.03 73 1013.9
20260509125801 21 242 6.4 16.1 0.00 0.03 0.03 71 1014.0
20260509125752 21 260 4.8 14.5 0.00 0.03 0.03 71 1014.0
20260509124754 21 252 3.2 11.3 0.00 0.03 0.03 72 1013.9
20260509124248 21 223 4.8 14.5 0.00 0.03 0.03 72 1013.9
20260509123741 21 201 6.4 14.5 0.00 0.03 0.03 72 1014.0
20260509123236 21 221 6.4 14.5 0.00 0.03 0.03 71 1014.1
20260509122730 21 219 4.8 12.9 0.00 0.03 0.03 70 1014.1
20260509122224 21 213 4.8 12.9 0.00 0.03 0.03 71 1014.1
20260509121717 21 227 3.2 9.7 0.00 0.03 0.03 71 1014.1
20260509121211 21 266 4.8 9.7 0.00 0.03 0.03 72 1014.0
20260509120704 21 207 4.8 11.3 0.00 0.03 0.03 73 1014.0
20260509120158 21 258 4.8 11.3 0.00 0.03 0.03 71 1014.0
20260509115651 21 229 3.2 11.3 0.00 0.03 0.03 70 1014.0
20260509115412 22 267 3.2 6.4 0.00 0.03 0.03 70 1014.0
20260509114640 21 254 3.2 9.7 0.00 0.03 0.03 73 1014.1
20260509114134 21 257 4.8 11.3 0.00 0.03 0.03 71 1014.1
20260509113847 20 233 6.4 11.3 0.00 0.05 0.03 73 1014.1
20260509113121 20 259 6.4 11.3 0.00 0.05 0.03 72 1014.2
20260509112616 20 246 4.8 9.7 0.00 0.10 0.03 73 1014.1
20260509112110 20 245 6.4 9.7 0.00 0.13 0.03 73 1014.1
20260509111604 20 229 4.8 8.0 0.00 0.15 0.03 73 1014.2
20260509111059 20 252 4.8 11.3 0.00 0.15 0.03 74 1014.2
20260509110551 20 275 6.4 12.9 0.00 0.15 0.03 74 1014.2
20260509110311 20 254 6.4 12.9 0.00 0.20 0.03 74 1014.3
20260509105805 20 297 6.4 11.3 0.00 0.23 0.03 74 1014.4
20260509105033 19 253 6.4 11.3 0.00 0.25 0.03 73 1014.4
20260509104750 20 245 6.4 11.3 0.00 0.28 0.03 72 1014.4
20260509104022 20 280 8.0 11.3 0.00 0.30 0.03 73 1014.4
20260509103520 20 275 6.4 11.3 0.00 0.33 0.03 72 1014.5
20260509103009 20 292 4.8 9.7 0.00 0.33 0.03 70 1014.6
20260509102504 20 284 3.2 8.0 0.00 0.33 0.03 68 1014.6
20260509101958 20 219 3.2 6.4 0.00 0.33 0.03 68 1014.6
20260509101709 20 255 3.2 8.0 0.00 0.36 0.03 69 1014.7
20260509100945 20 211 3.2 8.0 0.00 0.36 0.03 70 1014.8
20260509100440 19 221 4.8 8.0 0.00 0.36 0.03 71 1014.9
20260509100152 19 259 4.8 11.3 0.00 0.38 0.03 70 1014.9
20260509095429 19 262 4.8 11.3 0.00 0.38 0.03 69 1014.9
20260509094922 19 271 4.8 9.7 0.00 0.41 0.03 69 1015.0
20260509094416 19 215 4.8 9.7 0.00 0.41 0.03 73 1015.0
20260509093910 18 259 4.8 9.7 0.00 0.43 0.03 72 1015.1
20260509093404 18 278 4.8 9.7 0.00 0.43 0.03 74 1015.2
20260509092858 18 305 4.8 9.7 0.00 0.43 0.03 73 1015.1
20260509092618 18 323 4.8 9.7 0.00 0.43 0.03 75 1015.1
20260509091845 18 252 4.8 11.3 0.00 0.43 0.03 78 1015.1
20260509091340 18 234 4.8 11.3 0.00 0.43 0.03 78 1015.2
20260509091051 18 246 4.8 11.3 0.00 0.43 0.03 76 1015.2
20260509090328 18 302 4.8 11.3 0.00 0.43 0.03 77 1015.2
20260509085822 18 259 4.8 8.0 0.00 0.43 0.03 80 1015.2
20260509085315 18 280 4.8 8.0 0.00 0.43 0.03 79 1015.3
20260509084810 18 277 6.4 11.3 0.00 0.43 0.03 82 1015.3
20260509084304 17 295 6.4 11.3 0.00 0.43 0.03 80 1015.3
20260509084028 18 298 4.8 8.0 0.00 0.43 0.03 81 1015.3
20260509083251 18 271 4.8 8.0 0.00 0.43 0.03 83 1015.4
20260509082746 17 282 3.2 8.0 0.00 0.43 0.03 85 1015.4
20260509082240 17 265 3.2 6.4 0.00 0.43 0.03 87 1015.4
20260509081733 17 323 3.2 6.4 0.00 0.43 0.03 86 1015.4
20260509081228 17 284 3.2 6.4 0.00 0.43 0.03 87 1015.4
20260509080722 17 309 3.2 8.0 0.00 0.43 0.03 87 1015.5
20260509080216 17 297 3.2 8.0 0.00 0.43 0.03 88 1015.5
20260509075709 17 279 4.8 8.0 0.00 0.43 0.03 88 1015.6
20260509075425 17 281 4.8 8.0 0.00 0.43 0.03 88 1015.5
20260509074657 17 324 4.8 8.0 0.00 0.43 0.03 89 1015.5
20260509074411 16 299 1.6 8.0 0.00 0.43 0.03 89 1015.5
20260509073645 16 271 1.6 4.8 0.00 0.43 0.03 91 1015.5
20260509073140 16 35 3.2 4.8 0.00 0.43 0.03 91 1015.6
20260509072634 16 23 3.2 8.0 0.00 0.43 0.03 92 1015.5
20260509072128 16 278 4.8 8.0 0.00 0.43 0.03 91 1015.6
20260509071622 15 307 3.2 8.0 0.00 0.43 0.03 92 1015.7
20260509071116 16 307 3.2 8.0 0.00 0.43 0.03 92 1015.6
20260509070611 15 283 3.2 8.0 0.00 0.43 0.03 92 1015.7
20260509070326 15 277 4.8 8.0 0.00 0.43 0.03 93 1015.7
20260509065558 15 257 4.8 8.0 0.00 0.43 0.03 92 1015.8
20260509065052 15 249 4.8 8.0 0.00 0.43 0.03 92 1015.8
20260509064546 15 264 3.2 4.8 0.00 0.43 0.03 92 1015.8
20260509064040 15 255 3.2 4.8 0.00 0.43 0.03 92 1015.7
20260509063751 15 248 3.2 6.4 0.00 0.43 0.03 92 1015.7
20260509063028 15 229 3.2 6.4 0.00 0.43 0.03 91 1015.7
20260509062521 16 266 1.6 6.4 0.00 0.43 0.03 90 1015.7
20260509062016 16 89 0.0 4.8 0.00 0.43 0.03 91 1015.7
20260509061509 16 89 0.0 1.6 0.00 0.43 0.03 92 1015.6
20260509061228 16 89 1.6 3.2 0.03 0.43 0.03 92 1015.6
20260509060459 15 89 1.6 3.2 0.03 0.43 0.03 92 1015.7
20260509055952 15 89 1.6 4.8 0.03 0.43 0.03 92 1015.7
20260509055452 15 89 3.2 6.4 0.03 0.43 0.03 92 1015.6
20260509054950 15 89 3.2 8.0 0.03 0.43 0.03 92 1015.6
20260509054450 15 106 3.2 8.0 0.03 0.43 0.03 92 1015.5
20260509053950 15 87 3.2 9.7 0.03 0.43 0.03 92 1015.5
20260509053448 15 94 3.2 9.7 0.03 0.43 0.03 92 1015.3
20260509052946 15 132 4.8 9.7 0.03 0.43 0.03 92 1015.5
20260509052446 15 95 4.8 9.7 0.03 0.43 0.03 92 1015.4
20260509051946 15 91 1.6 8.0 0.03 0.43 0.03 92 1015.4
20260509051446 15 99 1.6 8.0 0.03 0.43 0.03 92 1015.4
20260509050946 15 131 1.6 3.2 0.00 0.43 0.00 92 1015.5
20260509050446 15 116 0.0 3.2 0.00 0.43 0.00 93 1015.4
20260509045946 15 142 1.6 6.4 0.00 0.43 0.00 93 1015.3
20260509045445 15 142 3.2 6.4 0.00 0.43 0.00 93 1015.2
20260509044946 15 148 3.2 6.4 0.00 0.43 0.00 93 1015.4
20260509044446 15 140 3.2 6.4 0.00 0.43 0.00 93 1015.3
20260509044208 15 131 1.6 6.4 0.00 0.43 0.00 93 1015.2
20260509043446 15 202 1.6 4.8 0.00 0.43 0.00 93 1015.1
20260509042945 15 300 0.0 1.6 0.00 0.43 0.00 93 1015.0
20260509042445 15 300 0.0 0.0 0.00 0.43 0.00 94 1015.0
20260509041946 15 300 0.0 0.0 0.00 0.43 0.00 94 1015.0
20260509041446 15 300 0.0 0.0 0.00 0.43 0.00 94 1015.0
20260509040945 15 300 0.0 0.0 0.00 0.43 0.00 94 1015.0
20260509040445 15 300 0.0 1.6 0.00 0.43 0.00 94 1015.0
20260509035946 15 300 0.0 1.6 0.00 0.43 0.00 94 1015.0
20260509035446 15 300 0.0 1.6 0.00 0.43 0.00 94 1015.1
20260509034945 15 300 0.0 1.6 0.00 0.43 0.00 94 1015.1
20260509034445 15 300 0.0 1.6 0.00 0.43 0.00 94 1015.1
20260509033946 15 300 0.0 3.2 0.00 0.43 0.00 94 1015.1
20260509033445 15 300 0.0 3.2 0.00 0.43 0.00 94 1015.1
20260509032945 15 301 0.0 1.6 0.00 0.43 0.00 94 1015.1
20260509032445 15 301 0.0 3.2 0.00 0.43 0.00 94 1015.1
20260509031945 15 301 0.0 3.2 0.00 0.43 0.00 94 1015.1
20260509031446 15 301 0.0 1.6 0.00 0.43 0.00 94 1015.0
20260509031427 15 301 0.0 1.6 0.00 0.43 0.00 94 1015.0
20260509030439 15 301 0.0 1.6 0.00 0.43 0.00 94 1015.1
20260509030156 15 301 0.0 1.6 0.00 0.43 0.00 94 1015.1
20260509025427 15 301 0.0 1.6 0.00 0.43 0.00 94 1015.1
20260509024920 15 301 0.0 1.6 0.00 0.43 0.00 94 1015.1
20260509024415 15 301 0.0 1.6 0.00 0.43 0.00 94 1015.1
20260509023908 15 301 0.0 1.6 0.00 0.43 0.00 94 1015.0
20260509023403 15 301 0.0 1.6 0.00 0.43 0.00 94 1015.0
20260509022857 15 301 0.0 1.6 0.00 0.43 0.00 94 1015.0
20260509022350 15 301 0.0 1.6 0.00 0.43 0.00 94 1015.1
20260509021845 15 301 0.0 1.6 0.00 0.43 0.00 94 1015.2
20260509021339 15 301 0.0 1.6 0.00 0.43 0.00 94 1015.2
20260509020833 15 301 0.0 1.6 0.00 0.43 0.00 94 1015.2
20260509020327 15 301 0.0 1.6 0.00 0.43 0.00 94 1015.2
20260509015820 15 301 0.0 1.6 0.00 0.43 0.00 94 1015.2
20260509015315 15 301 0.0 1.6 0.00 0.43 0.00 94 1015.2
20260509014809 15 301 0.0 1.6 0.00 0.43 0.00 94 1015.1
20260509014305 15 301 0.0 1.6 0.00 0.43 0.00 94 1015.1
20260509014019 15 301 0.0 0.0 0.00 0.43 0.00 94 1015.2
20260509013251 15 301 0.0 0.0 0.00 0.43 0.00 94 1015.2
20260509012744 15 301 0.0 1.6 0.00 0.43 0.00 94 1015.2
20260509012238 15 301 0.0 1.6 0.00 0.43 0.00 94 1015.3
20260509011733 15 301 1.6 3.2 0.00 0.43 0.00 94 1015.3
20260509011228 15 301 1.6 3.2 0.00 0.43 0.00 94 1015.4
20260509010721 15 301 1.6 1.6 0.00 0.43 0.00 94 1015.4
20260509010215 15 301 1.6 3.2 0.00 0.43 0.00 94 1015.4
20260509005709 15 301 1.6 3.2 0.00 0.43 0.00 94 1015.4
20260509005652 15 301 1.6 3.2 0.00 0.43 0.00 94 1015.4
20260509004657 15 301 1.6 3.2 0.00 0.43 0.00 94 1015.4
20260509004151 15 301 0.0 3.2 0.00 0.43 0.00 94 1015.4
20260509003645 15 301 1.6 4.8 0.00 0.43 0.00 94 1015.4
20260509003139 15 301 3.2 4.8 0.00 0.43 0.00 94 1015.5
20260509002635 15 301 3.2 4.8 0.00 0.43 0.00 94 1015.6
20260509002127 15 301 3.2 4.8 0.00 0.43 0.00 94 1015.7
20260509001621 15 302 3.2 6.4 0.00 0.43 0.00 94 1015.7
20260509001334 15 301 3.2 6.4 0.00 0.43 0.00 94 1015.7
20260509000609 15 300 1.6 4.8 0.00 0.43 0.00 94 1015.8
20260509000325 15 287 1.6 4.8 0.00 0.43 0.00 94 1015.8
20260508235556 15 257 1.6 3.2 0.00 0.43 0.00 94 1015.9
20260508235051 15 257 1.6 3.2 0.00 0.43 0.00 94 1015.9
20260508234545 15 257 3.2 4.8 0.00 0.43 0.00 94 1016.0
20260508234519 15 257 1.6 4.8 0.00 0.43 0.00 94 1016.1
20260508233753 15 250 1.6 3.2 0.00 0.43 0.00 94 1016.0
20260508233026 15 250 1.6 3.2 0.00 0.43 0.00 93 1015.9
20260508232520 15 250 1.6 3.2 0.00 0.43 0.00 93 1015.9
20260508232015 15 250 1.6 4.8 0.00 0.43 0.00 93 1016.0
20260508231508 15 250 3.2 4.8 0.00 0.43 0.00 93 1016.1
20260508231007 15 245 1.6 4.8 0.00 0.43 0.00 93 1016.1
20260508230457 15 241 1.6 3.2 0.00 0.43 0.00 93 1016.2
20260508225951 15 241 1.6 3.2 0.00 0.43 0.00 93 1016.2
20260508225447 15 252 3.2 4.8 0.00 0.43 0.00 93 1016.2
20260508224940 15 252 3.2 4.8 0.00 0.43 0.00 93 1016.3
20260508224658 15 264 1.6 4.8 0.00 0.43 0.00 93 1016.3
20260508223927 15 250 1.6 3.2 0.00 0.43 0.00 93 1016.3
20260508223421 15 250 1.6 3.2 0.00 0.43 0.00 93 1016.3
20260508223138 15 250 1.6 3.2 0.00 0.43 0.00 93 1016.3
20260508222409 15 250 1.6 3.2 0.00 0.43 0.00 93 1016.4
20260508221903 15 250 1.6 3.2 0.00 0.43 0.00 93 1016.5